User: anonymous   Login
Location: Arezzo
(43.4170°N, 11.8830°E)
Time: 04:12:58
(UTC+02:00)
Language:

STARLINK-2666 - Orbit

View from above orbital plane
View from above orbital plane
View from above satellite
View from above satellite

Ground track
Ground track

The orbit data is extracted from the following two-line orbital elements,

1 48666C 21044AE  21269.76786308  .00005248  00000-0  35164-3 0  2697
2 48666  53.0536 206.1658 0002004  63.1385 184.8502 15.06389735    10
Epoch (UTC): 26 September 2021 18:25:43
Eccentricity: 0.0002004
inclination: 53.0536°
perigee height: 546 km
apogee height: 548 km
right ascension of ascending node: 206.1658°
argument of perigee: 63.1385°
revolutions per day: 15.06389735
mean anomaly at epoch: 184.8502°
orbit number at epoch: 1

The dashed part of the orbit path shows where the satellite is in the earth's shadow,  

DLR